Location: Newark
(41.7772°N, 74.7403°W)
Time: 08:20:05
(UTC+00:00)

Courier 1B Rocket - All Passes

Search period start: 30 May 2020 00:00
Search period end: 09 June 2020 00:00
Orbit: 920 x 1202 km, 28.2° (Epoch: 29 May)

Date Brightness Start Highest point End Pass type
(mag) Time Alt. Az. Time Alt. Az. Time Alt. Az.
30 May - 13:14:16 10° SSW 13:19:04 20° SSE 13:23:40 10° ESE daylight
30 May - 15:06:28 10° SW 15:11:37 24° S 15:16:34 10° SE daylight
30 May - 17:00:04 10° SW 17:04:03 17° SSW 17:07:58 10° SSE daylight
31 May - 12:13:53 10° SSW 12:18:17 17° SSE 12:22:31 10° SE daylight
31 May - 14:05:32 10° SW 14:10:51 24° S 14:15:55 10° SE daylight
31 May - 15:58:41 10° WSW 16:03:21 21° SSW 16:07:53 10° SE daylight
01 Jun - 11:13:54 10° S 11:17:29 14° SSE 11:20:58 10° SE daylight
01 Jun - 13:04:41 10° SW 13:10:03 24° S 13:15:09 10° ESE daylight
01 Jun - 14:57:28 10° WSW 15:02:37 23° S 15:07:34 10° SE daylight
01 Jun - 16:51:55 10° SW 16:54:59 14° SSW 16:58:00 10° S daylight
02 Jun - 10:14:58 10° S 10:16:40 11° SSE 10:18:22 10° SE daylight
02 Jun - 12:03:59 10° SW 12:09:13 22° SSE 12:14:13 10° ESE daylight
02 Jun - 13:56:21 10° SW 14:01:51 25° S 14:07:04 10° SE daylight
02 Jun - 15:50:05 10° WSW 15:54:19 18° SSW 15:58:25 10° SSE daylight
03 Jun - 11:03:29 10° SSW 11:08:22 19° SSE 11:13:03 10° ESE daylight
03 Jun - 12:55:19 10° SW 13:01:01 26° S 13:06:25 10° SE daylight
03 Jun - 14:48:37 10° WSW 14:53:35 22° SSW 14:58:22 10° SE daylight
04 Jun - 10:03:22 10° SSW 10:07:31 16° SSE 10:11:33 10° SE daylight
04 Jun - 11:54:23 10° SW 12:00:09 25° S 12:05:37 10° ESE daylight
04 Jun - 13:47:18 10° WSW 13:52:49 25° S 13:58:03 10° SE daylight
04 Jun - 15:41:51 10° SW 15:45:13 14° SSW 15:48:30 10° S daylight
05 Jun - 09:04:03 10° S 09:06:39 12° SSE 09:09:15 10° SE daylight
05 Jun - 10:53:37 10° SW 10:59:16 23° SSE 11:04:39 10° ESE daylight
05 Jun - 12:46:06 10° WSW 12:51:59 27° S 12:57:32 10° SE daylight
05 Jun - 14:39:56 10° WSW 14:44:31 19° SSW 14:48:54 10° SSE daylight
06 Jun - 09:53:05 10° SSW 09:58:21 20° SSE 10:03:27 10° ESE daylight
06 Jun - 11:45:01 10° SW 11:51:05 27° S 11:56:50 10° ESE daylight
06 Jun - 13:38:23 10° WSW 13:43:45 23° SSW 13:48:50 10° SE daylight
06 Jun - 15:34:45 10° SW 15:36:03 11° SSW 15:37:22 10° SSW daylight
07 Jun - 08:52:55 10° SSW 08:57:28 17° SSE 09:01:55 10° ESE visible
07 Jun - 10:44:03 10° SW 10:50:09 26° S 10:56:00 10° ESE daylight
07 Jun - 12:37:02 10° WSW 12:42:54 26° S 12:48:29 10° SE daylight
07 Jun - 14:31:36 10° SW 14:35:23 15° SSW 14:39:02 10° S daylight
08 Jun - 07:53:29 10° S 07:56:35 13° SSE 07:59:40 10° SE visible
08 Jun - 09:43:17 10° SW 09:49:13 24° SSE 09:54:57 10° ESE daylight
08 Jun - 11:35:47 10° WSW 11:42:00 28° S 11:47:55 10° SE daylight
08 Jun - 13:29:39 10° WSW 13:34:37 20° SSW 13:39:22 10° SSE daylight
